Twin Falls, ID

5:50 PM MDT on August 28, 2016 (GMT -0600)
Joslin Field-Magic Valley Regional

Weather History for KTWF - April, 2014

Change the Weather History Date:

Monday, April 21, 2014

  Actual Average Record
Temperature  
Mean Temperature 55 °F -  
Max Temperature 77 °F 62 °F 84 °F (1980)
Min Temperature 33 °F 36 °F 18 °F (1982)
Degree Days  
Heating Degree Days 10 16  
Month to date heating degree days 303 378  
Since 1 July heating degree days 5162 5667  
Cooling Degree Days 0 0  
Month to date cooling degree days 0 0  
Year to date cooling degree days 0 0  
Growing Degree Days 4 (Base 50)    
Moisture  
Dew Point 25 °F    
Average Humidity 38    
Maximum Humidity 61    
Minimum Humidity 15    
Precipitation  
Precipitation T in 0.04 in 0.29 in (2004)
Month to date precipitation 0.19 0.77  
Year to date precipitation 4.32 3.60  
Sea Level Pressure  
Sea Level Pressure 29.98 in    
Wind  
Wind Speed 11 mph (ESE)    
Max Wind Speed 29 mph    
Max Gust Speed 39 mph    
Visibility 10 miles    
Events      
T = Trace of Precipitation, MM = Missing Value Source: NWS Daily Summary

Daily Weather History Graph

Daily Weather History Graph

Search for Another Location

Airport or City:

Trip Planner

Search our weather history database for the weather conditions in past years. The results will help you decide how hot, cold, wet, or windy it might be!

Date:

Astronomy

Apr. 21, 2014 Rise Set
Actual Time 6:47 AM MDT 8:26 PM MDT
Civil Twilight 6:17 AM MDT 8:56 PM MDT
Nautical Twilight 5:41 AM MDT 9:32 PM MDT
Astronomical Twilight 5:02 AM MDT 10:11 PM MDT
Moon 2:01 AM MDT (4/21) 12:17 PM MDT (4/21)
Length of Visible Light 14h 38m
Length of Day
13h 39m
Waning Gibbous, 57% of the Moon is Illuminated
Apr 21
Waning Gibbous
Apr 22
Last Quarter
Apr 29
New
May 6
First Quarter
May 14
Full

Hourly Weather History & Observations

Time (MDT) Temp. Windchill Dew Point Humidity Pressure Visibility Wind Dir Wind Speed Gust Speed Precip Events Conditions
12:53 AM 45.0 °F 39.3 °F 19.0 °F 36% 30.14 in 10.0 mi South 11.5 mph - N/A   Clear
1:53 AM 43.0 °F 37.2 °F 19.9 °F 40% 30.14 in 10.0 mi South 10.4 mph - N/A   Clear
2:53 AM 42.1 °F 34.9 °F 21.0 °F 43% 30.12 in 10.0 mi South 13.8 mph - N/A   Clear
3:53 AM 42.1 °F 35.2 °F 21.0 °F 43% 30.13 in 10.0 mi South 12.7 mph - N/A   Clear
4:53 AM 39.9 °F 32.1 °F 21.9 °F 49% 30.13 in 10.0 mi South 13.8 mph - N/A   Clear
5:53 AM 41.0 °F 35.8 °F 21.9 °F 47% 30.12 in 10.0 mi South 8.1 mph - N/A   Clear
6:53 AM 34.0 °F 28.0 °F 21.9 °F 61% 30.14 in 10.0 mi SSE 6.9 mph - N/A   Clear
7:53 AM 44.1 °F 40.8 °F 26.1 °F 49% 30.12 in 10.0 mi East 5.8 mph - N/A   Clear
8:53 AM 52.0 °F - 27.0 °F 38% 30.11 in 10.0 mi East 5.8 mph - N/A   Clear
9:53 AM 53.1 °F - 28.0 °F 38% 30.10 in 10.0 mi ENE 8.1 mph - N/A   Clear
10:53 AM 59.0 °F - 26.1 °F 28% 30.07 in 10.0 mi NE 15.0 mph - N/A   Clear
11:53 AM 63.0 °F - 23.0 °F 22% 30.04 in 10.0 mi ENE 12.7 mph - N/A   Clear
12:53 PM 66.9 °F - 25.0 °F 21% 30.00 in 10.0 mi ENE 10.4 mph - N/A   Clear
1:53 PM 71.1 °F - 28.0 °F 20% 29.94 in 10.0 mi NE 12.7 mph 19.6 mph N/A   Clear
2:53 PM 73.0 °F - 26.1 °F 17% 29.90 in 10.0 mi NNE 11.5 mph - N/A   Clear
3:53 PM 75.0 °F - 27.0 °F 17% 29.86 in 10.0 mi NNE 16.1 mph - N/A   Clear
4:53 PM 73.9 °F - 26.1 °F 17% 29.83 in 10.0 mi North 13.8 mph - N/A   Clear
5:53 PM 73.9 °F - 27.0 °F 18% 29.81 in 10.0 mi North 9.2 mph - N/A   Clear
6:53 PM 71.1 °F - 30.0 °F 22% 29.81 in 10.0 mi NNE 5.8 mph - N/A   Partly Cloudy
7:53 PM 72.0 °F - 21.9 °F 15% 29.79 in 10.0 mi South 19.6 mph 26.5 mph N/A   Mostly Cloudy
8:53 PM 69.1 °F - 28.0 °F 22% 29.81 in 10.0 mi South 12.7 mph 28.8 mph 0.00 in   Overcast
9:53 PM 66.9 °F - 28.9 °F 24% 29.80 in 10.0 mi South 11.5 mph - 0.00 in   Mostly Cloudy
10:53 PM 61.0 °F - 34.0 °F 36% 29.78 in 10.0 mi SSE 10.4 mph - N/A   Clear
11:53 PM 61.0 °F - 33.1 °F 35% 29.75 in 10.0 mi SSW 9.2 mph - N/A   Clear